No particular awareness of the weather is required.    There are no Weather-warnings


Meteo18 Weather Cam more information Meteo18 Weather Cam


Thunder radar more information blitzortung!


Rain radar more information rain snow radar


Visit our other weather sites:

Template documentation
and downloads

And another site



Weather Underground History page Text

Daily Summary for October 8, 2017 Units:  Metric    English   Both
« Previous Day
Next Day »
Daily Weekly Monthly Yearly Custom
  High: Low: Average:
Temperature: 15.8 °C 9.9 °C 12.6 °C
Dew Point: 13.3 °C 8.4 °C 11.1 °C
Humidity: 96 % 81 % 91 %
Wind Speed: 16.1 km/h 0.0 km/h 3.2 km/h
Wind Gust: 19.3 km/h - -
Wind:- - WSW
Pressure: 1022.9 hPa 1020.5 hPa -
Precipitation: 5.1 mm    
Historical Graphs
 
 
Tabular Data for October 8, 2017
Time Temperature Dew Point Pressure Wind Wind Speed Wind Gust Humidity Rainfall Rate (Hourly)
00:02 11.5 °C 8.4 °C 1022.2 hPa WNW 3.2 km/h 8.0 km/h 81 % 0.8 mm
00:12 11.3 °C 8.5 °C 1021.9 hPa Calm   8.0 km/h 83 % 1.3 mm
00:17 11.2 °C 8.6 °C 1021.9 hPa SW 1.6 km/h 8.0 km/h 84 % 1.5 mm
00:22 11.2 °C 8.8 °C 1021.9 hPa WSW 1.6 km/h 4.8 km/h 85 % 1.5 mm
00:32 10.9 °C 8.8 °C 1022.2 hPa Calm   1.6 km/h 87 % 2.0 mm
00:42 10.8 °C 8.9 °C 1021.9 hPa Calm     88 % 2.3 mm
00:47 10.8 °C 8.9 °C 1021.9 hPa Calm   1.6 km/h 88 % 2.3 mm
00:52 10.7 °C 9.0 °C 1021.9 hPa Calm   1.6 km/h 89 % 1.8 mm
01:02 10.7 °C 9.1 °C 1021.9 hPa Calm     90 % 1.5 mm
01:07 10.6 °C 9.0 °C 1021.9 hPa Calm     90 % 1.5 mm
01:12 10.6 °C 9.2 °C 1021.9 hPa Calm     91 % 1.3 mm
01:17 10.6 °C 9.2 °C 1021.6 hPa Calm   1.6 km/h 91 % 1.0 mm
01:22 10.5 °C 9.3 °C 1021.9 hPa SW 1.6 km/h 3.2 km/h 92 % 1.0 mm
01:27 10.4 °C 9.2 °C 1021.6 hPa SW 1.6 km/h 3.2 km/h 92 % 0.8 mm
01:32 10.4 °C 9.2 °C 1021.6 hPa SW 3.2 km/h 4.8 km/h 92 % 0.5 mm
01:37 10.4 °C 9.2 °C 1021.6 hPa SW 1.6 km/h 8.0 km/h 92 % 0.5 mm
01:42 10.5 °C 9.4 °C 1021.6 hPa WSW 6.4 km/h 8.0 km/h 93 % 0.5 mm
01:47 10.5 °C 9.4 °C 1021.6 hPa SSW 8.0 km/h 9.7 km/h 93 % 0.5 mm
01:52 10.4 °C 9.3 °C 1021.6 hPa WSW 6.4 km/h 11.3 km/h 93 % 0.5 mm
01:57 10.4 °C 9.3 °C 1021.6 hPa WSW 11.3 km/h 11.3 km/h 93 % 0.5 mm
02:02 10.5 °C 9.4 °C 1021.6 hPa SW 3.2 km/h 16.1 km/h 93 % 0.5 mm
02:07 10.5 °C 9.4 °C 1021.6 hPa WNW 8.0 km/h 16.1 km/h 93 % 0.5 mm
02:12 10.5 °C 9.4 °C 1021.6 hPa SW 6.4 km/h 16.1 km/h 93 % 0.8 mm
02:17 10.4 °C 9.3 °C 1021.6 hPa West 4.8 km/h 16.1 km/h 93 % 1.0 mm
02:22 10.4 °C 9.3 °C 1021.2 hPa WSW 4.8 km/h 14.5 km/h 93 % 1.3 mm
02:27 10.3 °C 9.2 °C 1021.6 hPa WSW 9.7 km/h 14.5 km/h 93 % 1.3 mm
02:32 10.3 °C 9.2 °C 1021.2 hPa West 4.8 km/h 17.7 km/h 93 % 1.3 mm
02:37 10.3 °C 9.2 °C 1021.6 hPa WSW 6.4 km/h 17.7 km/h 93 % 1.3 mm
02:42 10.2 °C 9.0 °C 1021.6 hPa WSW 4.8 km/h 17.7 km/h 92 % 1.3 mm
02:47 10.2 °C 9.0 °C 1021.6 hPa WSW 3.2 km/h 12.9 km/h 92 % 1.3 mm
02:52 10.2 °C 9.0 °C 1021.2 hPa SW 6.4 km/h 12.9 km/h 92 % 1.3 mm
02:57 10.1 °C 8.9 °C 1021.2 hPa West 6.4 km/h 12.9 km/h 92 % 1.0 mm
03:02 10.1 °C 8.9 °C 1021.2 hPa SSW 1.6 km/h 12.9 km/h 92 % 0.8 mm
03:07 10.0 °C 8.9 °C 1021.2 hPa SW 4.8 km/h 12.9 km/h 93 % 0.8 mm
03:12 10.0 °C 8.9 °C 1021.2 hPa Calm   9.7 km/h 93 % 0.8 mm
03:17 9.9 °C 8.8 °C 1021.2 hPa Calm   8.0 km/h 93 % 0.5 mm
03:22 9.9 °C 8.8 °C 1021.2 hPa West 4.8 km/h 14.5 km/h 93 % 0.5 mm
03:27 9.9 °C 8.8 °C 1021.2 hPa WSW 11.3 km/h 14.5 km/h 93 % 0.5 mm
03:32 9.9 °C 8.8 °C 1021.2 hPa SW 3.2 km/h 16.1 km/h 93 % 0.5 mm
03:37 9.9 °C 8.8 °C 1020.9 hPa WNW 9.7 km/h 16.1 km/h 93 % 0.5 mm
03:42 9.9 °C 8.8 °C 1020.9 hPa WSW 14.5 km/h 16.1 km/h 93 % 0.5 mm
03:47 9.9 °C 8.8 °C 1020.9 hPa WNW 6.4 km/h 19.3 km/h 93 % 0.8 mm
03:52 9.9 °C 9.0 °C 1020.9 hPa WSW 16.1 km/h 19.3 km/h 94 % 1.0 mm
03:57 9.9 °C 9.0 °C 1020.9 hPa WSW 11.3 km/h 19.3 km/h 94 % 1.0 mm
04:02 9.9 °C 9.0 °C 1020.9 hPa WSW 4.8 km/h 16.1 km/h 94 % 1.5 mm
04:07 9.9 °C 9.0 °C 1020.9 hPa WSW 8.0 km/h 16.1 km/h 94 % 1.5 mm
04:12 9.9 °C 9.0 °C 1020.9 hPa WSW 3.2 km/h 14.5 km/h 94 % 1.5 mm
04:17 9.9 °C 9.0 °C 1020.9 hPa SSW 3.2 km/h 14.5 km/h 94 % 1.5 mm
04:22 9.9 °C 9.0 °C 1020.9 hPa WSW 11.3 km/h 14.5 km/h 94 % 1.5 mm
04:37 9.9 °C 9.1 °C 1020.5 hPa West 3.2 km/h 14.5 km/h 95 % 1.5 mm
04:42 9.9 °C 9.1 °C 1020.9 hPa SW 3.2 km/h 12.9 km/h 95 % 1.5 mm
04:47 9.9 °C 9.1 °C 1020.9 hPa SW 6.4 km/h 12.9 km/h 95 % 1.5 mm
04:52 9.9 °C 9.1 °C 1020.9 hPa WSW 8.0 km/h 12.9 km/h 95 % 1.3 mm
05:02 10.0 °C 9.2 °C 1020.9 hPa SW 3.2 km/h 11.3 km/h 95 % 0.5 mm
05:07 10.0 °C 9.2 °C 1020.9 hPa West 6.4 km/h 9.7 km/h 95 % 0.5 mm
05:12 10.0 °C 9.2 °C 1020.9 hPa West 3.2 km/h 9.7 km/h 95 % 0.5 mm
05:27 10.0 °C 9.2 °C 1020.9 hPa WSW 1.6 km/h 11.3 km/h 95 % 0.3 mm
05:37 10.0 °C 9.4 °C 1020.9 hPa WSW 6.4 km/h 8.0 km/h 96 % 0.0 mm
05:42 10.0 °C 9.4 °C 1020.9 hPa SW 6.4 km/h 8.0 km/h 96 % 0.0 mm
05:47 10.0 °C 9.4 °C 1020.9 hPa SSW 3.2 km/h 9.7 km/h 96 % 0.0 mm
05:52 10.0 °C 9.4 °C 1020.9 hPa West 4.8 km/h 9.7 km/h 96 % 0.0 mm
06:02 10.1 °C 9.5 °C 1020.9 hPa Calm   9.7 km/h 96 % 0.0 mm
06:12 10.1 °C 9.5 °C 1020.9 hPa Calm   4.8 km/h 96 % 0.0 mm
06:17 10.1 °C 9.5 °C 1020.9 hPa Calm   4.8 km/h 96 % 0.0 mm
06:22 10.1 °C 9.5 °C 1021.2 hPa SSW 1.6 km/h 4.8 km/h 96 % 0.0 mm
06:32 10.1 °C 9.5 °C 1021.2 hPa WSW 1.6 km/h 4.8 km/h 96 % 0.0 mm
06:37 10.1 °C 9.5 °C 1021.2 hPa Calm   4.8 km/h 96 % 0.0 mm
06:42 10.2 °C 9.6 °C 1021.2 hPa WSW 6.4 km/h 6.4 km/h 96 % 0.0 mm
06:47 10.2 °C 9.6 °C 1020.9 hPa WSW 1.6 km/h 4.8 km/h 96 % 0.0 mm
06:57 10.2 °C 9.6 °C 1021.2 hPa SW 1.6 km/h 6.4 km/h 96 % 0.0 mm
07:02 10.2 °C 9.6 °C 1021.2 hPa WSW 1.6 km/h 6.4 km/h 96 % 0.0 mm
07:12 10.2 °C 9.6 °C 1021.2 hPa SW 1.6 km/h 4.8 km/h 96 % 0.0 mm
07:17 10.3 °C 9.7 °C 1021.2 hPa West 4.8 km/h 4.8 km/h 96 % 0.0 mm
07:22 10.3 °C 9.7 °C 1020.9 hPa WSW 4.8 km/h 6.4 km/h 96 % 0.0 mm
07:32 10.3 °C 9.7 °C 1020.9 hPa WSW 6.4 km/h 8.0 km/h 96 % 0.0 mm
07:42 10.3 °C 9.7 °C 1021.2 hPa WSW 1.6 km/h 9.7 km/h 96 % 0.0 mm
07:47 10.3 °C 9.7 °C 1021.2 hPa West 4.8 km/h 9.7 km/h 96 % 0.0 mm
07:52 10.4 °C 9.8 °C 1021.2 hPa West 3.2 km/h 9.7 km/h 96 % 0.0 mm
07:57 10.4 °C 9.8 °C 1021.2 hPa West 8.0 km/h 9.7 km/h 96 % 0.0 mm
08:12 10.5 °C 9.9 °C 1021.2 hPa West 3.2 km/h 9.7 km/h 96 % 0.0 mm
08:17 10.6 °C 10.0 °C 1021.2 hPa SW 1.6 km/h 9.7 km/h 96 % 0.0 mm
08:22 10.6 °C 10.0 °C 1021.2 hPa West 1.6 km/h 9.7 km/h 96 % 0.0 mm
08:32 10.7 °C 10.1 °C 1021.2 hPa WSW 3.2 km/h 6.4 km/h 96 % 0.0 mm
08:42 10.8 °C 10.2 °C 1021.2 hPa WSW 3.2 km/h 9.7 km/h 96 % 0.0 mm
08:52 10.9 °C 10.3 °C 1021.6 hPa WSW 4.8 km/h 9.7 km/h 96 % 0.0 mm
08:57 10.9 °C 10.3 °C 1021.6 hPa West 4.8 km/h 9.7 km/h 96 % 0.0 mm
09:12 11.1 °C 10.5 °C 1021.6 hPa WNW 3.2 km/h 9.7 km/h 96 % 0.0 mm
09:17 11.1 °C 10.5 °C 1021.6 hPa Calm   9.7 km/h 96 % 0.0 mm
09:22 11.2 °C 10.6 °C 1021.6 hPa Calm   4.8 km/h 96 % 0.0 mm
09:32 11.3 °C 10.7 °C 1021.6 hPa Calm   6.4 km/h 96 % 0.0 mm
09:37 11.4 °C 10.8 °C 1021.6 hPa NNW 1.6 km/h 8.0 km/h 96 % 0.0 mm
09:42 11.4 °C 10.8 °C 1021.9 hPa WNW 6.4 km/h 9.7 km/h 96 % 0.0 mm
09:52 11.7 °C 11.1 °C 1021.9 hPa WNW 1.6 km/h 11.3 km/h 96 % 0.0 mm
10:02 11.8 °C 11.2 °C 1021.9 hPa West 3.2 km/h 11.3 km/h 96 % 0.0 mm
10:12 12.0 °C 11.4 °C 1021.9 hPa West 6.4 km/h 9.7 km/h 96 % 0.0 mm
10:17 12.2 °C 11.6 °C 1021.9 hPa WNW 14.5 km/h 14.5 km/h 96 % 0.0 mm
10:22 12.3 °C 11.5 °C 1021.9 hPa West 3.2 km/h 16.1 km/h 95 % 0.0 mm
10:32 12.7 °C 11.4 °C 1021.9 hPa West 8.0 km/h 16.1 km/h 92 % 0.0 mm
10:42 13.2 °C 11.8 °C 1021.9 hPa NW 6.4 km/h 12.9 km/h 91 % 0.0 mm
10:52 12.9 °C 11.1 °C 1022.2 hPa West 4.8 km/h 12.9 km/h 89 % 0.0 mm
11:02 13.2 °C 11.6 °C 1022.2 hPa WSW 3.2 km/h 12.9 km/h 90 % 0.0 mm
11:12 13.2 °C 11.1 °C 1021.9 hPa WNW 6.4 km/h 11.3 km/h 87 % 0.0 mm
11:17 13.3 °C 11.4 °C 1022.2 hPa WNW 1.6 km/h 11.3 km/h 88 % 0.0 mm
11:22 13.3 °C 11.4 °C 1022.2 hPa NW 9.7 km/h 9.7 km/h 88 % 0.0 mm
11:27 13.3 °C 11.4 °C 1022.2 hPa WNW 3.2 km/h 11.3 km/h 88 % 0.0 mm
11:32 13.3 °C 11.4 °C 1022.2 hPa Calm   11.3 km/h 88 % 0.0 mm
11:37 13.2 °C 11.3 °C 1022.2 hPa Calm   11.3 km/h 88 % 0.0 mm
11:42 13.5 °C 11.6 °C 1022.2 hPa Calm   9.7 km/h 88 % 0.0 mm
11:52 13.8 °C 11.5 °C 1022.2 hPa WNW 4.8 km/h 14.5 km/h 86 % 0.0 mm
11:57 13.8 °C 11.5 °C 1022.2 hPa NNE 3.2 km/h 14.5 km/h 86 % 0.0 mm
12:12 14.2 °C 11.5 °C 1022.2 hPa NNW 1.6 km/h 12.9 km/h 84 % 0.0 mm
12:17 14.4 °C 11.5 °C 1022.2 hPa WNW 3.2 km/h 12.9 km/h 83 % 0.0 mm
12:22 14.4 °C 11.4 °C 1022.2 hPa North 4.8 km/h 12.9 km/h 82 % 0.0 mm
12:32 14.3 °C 11.5 °C 1022.2 hPa Calm   12.9 km/h 83 % 0.0 mm
12:42 14.3 °C 11.6 °C 1022.2 hPa WNW 1.6 km/h 9.7 km/h 84 % 0.0 mm
12:47 14.3 °C 11.5 °C 1022.2 hPa NW 8.0 km/h 9.7 km/h 83 % 0.0 mm
12:57 14.3 °C 11.5 °C 1022.2 hPa WNW 3.2 km/h 9.7 km/h 83 % 0.0 mm
13:02 14.4 °C 11.5 °C 1022.2 hPa WNW 4.8 km/h 9.7 km/h 83 % 0.0 mm
13:07 14.3 °C 11.5 °C 1022.2 hPa NW 3.2 km/h 9.7 km/h 83 % 0.0 mm
13:12 14.3 °C 11.5 °C 1022.2 hPa WNW 4.8 km/h 9.7 km/h 83 % 0.0 mm
13:17 14.4 °C 11.5 °C 1022.2 hPa WNW 9.7 km/h 9.7 km/h 83 % 0.0 mm
13:22 14.4 °C 11.7 °C 1022.2 hPa WSW 3.2 km/h 9.7 km/h 84 % 0.0 mm
13:32 14.8 °C 12.5 °C 1022.2 hPa SSW 3.2 km/h 9.7 km/h 86 % 0.0 mm
13:37 14.6 °C 12.5 °C 1022.2 hPa SSW 11.3 km/h 12.9 km/h 87 % 0.0 mm
13:42 14.4 °C 12.4 °C 1022.2 hPa WSW 9.7 km/h 14.5 km/h 88 % 0.0 mm
13:47 14.3 °C 12.7 °C 1022.2 hPa SW 8.0 km/h 14.5 km/h 90 % 0.0 mm
13:52 14.1 °C 12.3 °C 1022.2 hPa SW 3.2 km/h 12.9 km/h 89 % 0.0 mm
13:57 14.1 °C 12.5 °C 1022.2 hPa WSW 8.0 km/h 12.9 km/h 90 % 0.0 mm
14:02 14.3 °C 12.7 °C 1022.2 hPa SSW 6.4 km/h 12.9 km/h 90 % 0.0 mm
14:07 14.6 °C 12.8 °C 1022.2 hPa SW 8.0 km/h 12.9 km/h 89 % 0.0 mm
14:17 15.1 °C 13.1 °C 1021.9 hPa SW 9.7 km/h 12.9 km/h 88 % 0.0 mm
14:22 14.9 °C 12.8 °C 1021.9 hPa West 9.7 km/h 14.5 km/h 87 % 0.0 mm
14:27 14.9 °C 12.9 °C 1021.9 hPa WSW 3.2 km/h 14.5 km/h 88 % 0.0 mm
14:32 14.9 °C 12.9 °C 1021.9 hPa WSW 3.2 km/h 14.5 km/h 88 % 0.0 mm
14:37 14.8 °C 12.7 °C 1021.9 hPa SW 4.8 km/h 14.5 km/h 87 % 0.0 mm
14:42 14.8 °C 12.7 °C 1021.6 hPa SW 3.2 km/h 9.7 km/h 87 % 0.0 mm
14:47 14.9 °C 12.8 °C 1021.6 hPa WSW 6.4 km/h 11.3 km/h 87 % 0.0 mm
14:52 14.9 °C 12.4 °C 1021.6 hPa SW 8.0 km/h 11.3 km/h 85 % 0.0 mm
14:57 14.9 °C 12.6 °C 1021.6 hPa SW 8.0 km/h 11.3 km/h 86 % 0.0 mm
15:02 14.9 °C 12.8 °C 1021.6 hPa SSW 8.0 km/h 12.9 km/h 87 % 0.0 mm
15:07 15.0 °C 12.7 °C 1021.6 hPa SW 6.4 km/h 12.9 km/h 86 % 0.0 mm
15:12 15.0 °C 12.9 °C 1021.6 hPa SW 6.4 km/h 14.5 km/h 87 % 0.0 mm
15:17 14.9 °C 12.8 °C 1021.6 hPa West 8.0 km/h 14.5 km/h 87 % 0.0 mm
15:22 14.8 °C 12.7 °C 1021.6 hPa SSW 11.3 km/h 14.5 km/h 87 % 0.0 mm
15:27 14.8 °C 12.7 °C 1021.6 hPa WSW 6.4 km/h 12.9 km/h 87 % 0.0 mm
15:32 14.9 °C 12.8 °C 1021.6 hPa SW 8.0 km/h 12.9 km/h 87 % 0.0 mm
15:37 15.2 °C 13.2 °C 1021.6 hPa WSW 9.7 km/h 12.9 km/h 88 % 0.0 mm
15:42 15.2 °C 12.9 °C 1021.6 hPa SW 8.0 km/h 16.1 km/h 86 % 0.0 mm
15:47 15.1 °C 12.8 °C 1021.6 hPa WSW 8.0 km/h 16.1 km/h 86 % 0.0 mm
15:52 15.1 °C 12.8 °C 1021.6 hPa SW 8.0 km/h 16.1 km/h 86 % 0.0 mm
15:57 15.0 °C 12.9 °C 1021.6 hPa SW 6.4 km/h 14.5 km/h 87 % 0.0 mm
16:02 15.1 °C 13.0 °C 1021.6 hPa SW 6.4 km/h 12.9 km/h 87 % 0.0 mm
16:12 15.2 °C 13.2 °C 1021.6 hPa SSW 4.8 km/h 16.1 km/h 88 % 0.0 mm
16:17 15.2 °C 13.0 °C 1021.6 hPa WSW 6.4 km/h 16.1 km/h 87 % 0.0 mm
16:22 15.1 °C 13.0 °C 1021.6 hPa WSW 8.0 km/h 14.5 km/h 87 % 0.0 mm
16:32 14.9 °C 12.8 °C 1021.6 hPa SW 3.2 km/h 11.3 km/h 87 % 0.0 mm
16:37 14.9 °C 12.8 °C 1021.6 hPa SSW 3.2 km/h 11.3 km/h 87 % 0.0 mm
16:42 14.9 °C 12.8 °C 1021.6 hPa SW 1.6 km/h 11.3 km/h 87 % 0.0 mm
16:47 14.9 °C 12.9 °C 1021.6 hPa SSW 1.6 km/h 11.3 km/h 88 % 0.0 mm
16:52 14.9 °C 12.8 °C 1021.6 hPa Calm   6.4 km/h 87 % 0.0 mm
16:57 14.9 °C 12.8 °C 1021.6 hPa Calm   3.2 km/h 87 % 0.0 mm
17:02 14.9 °C 12.8 °C 1021.6 hPa Calm   3.2 km/h 87 % 0.0 mm
17:07 14.9 °C 12.8 °C 1021.6 hPa Calm   3.2 km/h 87 % 0.0 mm
17:12 15.0 °C 12.9 °C 1021.6 hPa WSW 3.2 km/h 3.2 km/h 87 % 0.0 mm
17:17 15.0 °C 13.0 °C 1021.6 hPa Calm   3.2 km/h 88 % 0.0 mm
17:22 15.0 °C 12.9 °C 1021.6 hPa West 1.6 km/h 4.8 km/h 87 % 0.0 mm
17:32 14.9 °C 12.9 °C 1021.6 hPa Calm   6.4 km/h 88 % 0.0 mm
17:37 14.9 °C 12.9 °C 1021.6 hPa SW 1.6 km/h 6.4 km/h 88 % 0.0 mm
17:42 14.9 °C 12.8 °C 1021.6 hPa WSW 3.2 km/h 6.4 km/h 87 % 0.0 mm
17:47 14.9 °C 12.8 °C 1021.6 hPa SSW 1.6 km/h 6.4 km/h 87 % 0.0 mm
17:52 14.9 °C 12.8 °C 1021.6 hPa WSW 1.6 km/h 6.4 km/h 87 % 0.0 mm
17:57 14.9 °C 12.8 °C 1021.6 hPa Calm   3.2 km/h 87 % 0.0 mm
18:02 14.9 °C 12.8 °C 1021.6 hPa Calm   3.2 km/h 87 % 0.0 mm
18:07 14.9 °C 12.8 °C 1021.6 hPa Calm   3.2 km/h 87 % 0.0 mm
18:12 14.9 °C 12.8 °C 1021.6 hPa WNW 1.6 km/h 1.6 km/h 87 % 0.0 mm
18:17 15.1 °C 13.1 °C 1021.6 hPa Calm   1.6 km/h 88 % 0.0 mm
18:22 15.3 °C 13.3 °C 1021.6 hPa WNW 1.6 km/h 1.6 km/h 88 % 0.0 mm
18:32 15.8 °C 13.3 °C 1021.6 hPa NW 3.2 km/h 3.2 km/h 85 % 0.0 mm
18:47 15.7 °C 13.2 °C 1021.6 hPa Calm   4.8 km/h 85 % 0.0 mm
18:52 15.7 °C 13.2 °C 1021.6 hPa Calm   3.2 km/h 85 % 0.0 mm
18:57 15.5 °C 13.0 °C 1021.6 hPa Calm   1.6 km/h 85 % 0.0 mm
19:02 15.4 °C 13.1 °C 1021.9 hPa Calm   1.6 km/h 86 % 0.0 mm
19:07 15.3 °C 13.1 °C 1021.9 hPa Calm   1.6 km/h 87 % 0.0 mm
19:12 15.2 °C 13.0 °C 1021.9 hPa Calm     87 % 0.0 mm
19:17 15.1 °C 13.1 °C 1021.9 hPa Calm     88 % 0.0 mm
19:22 15.0 °C 13.0 °C 1021.9 hPa Calm     88 % 0.0 mm
19:27 14.9 °C 12.9 °C 1021.9 hPa Calm     88 % 0.0 mm
19:32 14.9 °C 13.1 °C 1021.9 hPa Calm     89 % 0.0 mm
19:37 14.8 °C 13.0 °C 1021.9 hPa Calm     89 % 0.0 mm
19:52 14.4 °C 12.8 °C 1022.2 hPa Calm     90 % 0.0 mm
19:57 14.3 °C 12.7 °C 1022.2 hPa Calm     90 % 0.0 mm
20:02 14.2 °C 12.8 °C 1022.2 hPa Calm     91 % 0.0 mm
20:07 14.1 °C 12.7 °C 1022.2 hPa Calm   1.6 km/h 91 % 0.0 mm
20:12 14.0 °C 12.6 °C 1022.2 hPa Calm   1.6 km/h 91 % 0.0 mm
20:17 13.9 °C 12.5 °C 1022.2 hPa NNW 1.6 km/h 1.6 km/h 91 % 0.0 mm
20:22 13.9 °C 12.5 °C 1022.2 hPa Calm   1.6 km/h 91 % 0.0 mm
20:27 14.0 °C 12.6 °C 1022.2 hPa Calm   1.6 km/h 91 % 0.0 mm
20:32 14.0 °C 12.6 °C 1022.2 hPa Calm   1.6 km/h 91 % 0.0 mm
20:37 14.0 °C 12.6 °C 1022.2 hPa Calm   1.6 km/h 91 % 0.0 mm
20:42 13.9 °C 12.5 °C 1022.2 hPa Calm   1.6 km/h 91 % 0.0 mm
20:52 13.7 °C 12.3 °C 1022.6 hPa Calm     91 % 0.0 mm
20:57 13.7 °C 12.3 °C 1022.2 hPa Calm     91 % 0.0 mm
21:02 13.7 °C 12.3 °C 1022.6 hPa Calm     91 % 0.0 mm
21:12 13.6 °C 12.3 °C 1022.6 hPa Calm   1.6 km/h 92 % 0.0 mm
21:17 13.6 °C 12.3 °C 1022.6 hPa Calm   1.6 km/h 92 % 0.0 mm
21:22 13.5 °C 12.2 °C 1022.6 hPa Calm   1.6 km/h 92 % 0.0 mm
21:27 13.5 °C 12.2 °C 1022.6 hPa NNW 1.6 km/h 3.2 km/h 92 % 0.0 mm
21:37 13.4 °C 12.3 °C 1022.6 hPa Calm   3.2 km/h 93 % 0.0 mm
21:42 13.4 °C 12.3 °C 1022.6 hPa Calm   1.6 km/h 93 % 0.0 mm
21:47 13.3 °C 12.2 °C 1022.6 hPa Calm   1.6 km/h 93 % 0.0 mm
21:52 13.3 °C 12.2 °C 1022.6 hPa Calm   1.6 km/h 93 % 0.0 mm
21:57 13.3 °C 12.2 °C 1022.6 hPa Calm   1.6 km/h 93 % 0.0 mm
22:02 13.2 °C 12.1 °C 1022.6 hPa Calm   1.6 km/h 93 % 0.0 mm
22:07 13.2 °C 11.9 °C 1022.6 hPa Calm   1.6 km/h 92 % 0.0 mm
22:12 13.1 °C 11.8 °C 1022.6 hPa Calm   1.6 km/h 92 % 0.0 mm
22:17 13.1 °C 12.0 °C 1022.6 hPa Calm   1.6 km/h 93 % 0.0 mm
22:22 13.0 °C 11.9 °C 1022.9 hPa Calm   1.6 km/h 93 % 0.0 mm
22:27 12.9 °C 11.8 °C 1022.6 hPa Calm     93 % 0.0 mm
22:32 12.9 °C 11.8 °C 1022.9 hPa Calm     93 % 0.0 mm
22:37 12.8 °C 11.7 °C 1022.9 hPa Calm     93 % 0.0 mm
22:42 12.8 °C 11.7 °C 1022.6 hPa Calm     93 % 0.0 mm
22:47 12.7 °C 11.6 °C 1022.9 hPa Calm     93 % 0.0 mm
22:52 12.6 °C 11.5 °C 1022.9 hPa Calm     93 % 0.0 mm
22:57 12.5 °C 11.4 °C 1022.6 hPa Calm     93 % 0.0 mm
23:02 12.4 °C 11.3 °C 1022.6 hPa Calm     93 % 0.0 mm
23:07 12.3 °C 11.4 °C 1022.6 hPa Calm     94 % 0.0 mm
23:12 12.1 °C 11.2 °C 1022.6 hPa Calm     94 % 0.0 mm
23:17 11.9 °C 11.0 °C 1022.6 hPa Calm     94 % 0.0 mm
23:22 11.8 °C 10.9 °C 1022.9 hPa Calm     94 % 0.0 mm
23:27 11.8 °C 11.0 °C 1022.9 hPa Calm     95 % 0.0 mm
23:32 11.8 °C 11.0 °C 1022.9 hPa Calm   1.6 km/h 95 % 0.0 mm
23:37 11.8 °C 11.0 °C 1022.9 hPa Calm   1.6 km/h 95 % 0.0 mm
23:42 11.7 °C 10.9 °C 1022.9 hPa Calm   3.2 km/h 95 % 0.0 mm
23:52 11.7 °C 10.9 °C 1022.9 hPa Calm   3.2 km/h 95 % 0.0 mm
23:57 11.6 °C 10.8 °C 1022.9 hPa Calm   3.2 km/h 95 % 0.0 mm
Meteo18
Compliments of Weather Underground - 4 mb

Script developed by  Jim McMurry - jmcmurry@mwt.net Adapted for the template by  Wim van der Kuil - Leuven-Template.eu

You find our weather info also at:

European Weather Network

Weather Underground

Equipment we use:

Weather-station
Davis Vue

Weather-program
Meteohub

Weather-server
Raspberry PI 2 B+

Provider
1 and 1

Davis Vue

Meteohub

Raspberry PI 2 B+

1 and 1